Lid_Strength_Index
0 -1 -1 -2 -1 -1 -1 -1 -1 -2 -2 -2 -2 -2 -2 -2 -2 -3 -2 -2 -2 -2 -2 -2 -2 -2 -2 -2 -2 -2 -2 -2 -2 -2 -2 -2 -2 -2 -2 -2 -2 -1 -2
-1 -1 -1 -2 -2 -1 -1 -1 -1 -2 -2 -2 -2 -2 -2 -2 -2 -2 -2 -3 -2 -2 -2 -2 -2 -2 -2 -2 -2 -2 -2 -2 -2 -2 -2 -2 -2 -2 -2 -2 -2 -2 -2
-0 -1 -1 -2 -2 -1 -1 -1 -1 -2 -2 -2 -2 -2 -2 -2 -2 -2 -2 -3 -2 -1 -2 -2 -2 -2 -2 -2 -2 -2 -2 -2 -2 -2 -2 -1 -1 -2 -2 -2 -2 -2 -2
-1 -1 -1 -1 -2 -1 -1 -2 -1 -2 -2 -2 -2 -2 -2 -2 -2 -2 -2 -2 -2 -2 -2 -2 -2 -2 -2 -2 -2 -2 -2 -2 -3 -2 -1 -1 -1 -2 -2 -2 -2 -2 -2
-1 -1 -1 -1 -2 -1 -1 -1 -1 -1 -2 -2 -2 -2 -2 -2 -2 -2 -2 -2 -2 -2 -2 -2 -2 -2 -2 -2 -2 -2 -2 -3 -3 -2 -1 -1 -1 -2 -2 -2 -2 -2 -2
-1 -1 -1 -1 -2 -1 -1 -1 -1 -1 -2 -2 -2 -1 -1 -2 -2 -2 -2 -2 -2 -2 -2 -2 -2 -2 -2 -2 -2 -2 -2 -3 -3 -1 -1 -2 -1 -2 -2 -2 -2 -2 -2
-0 -1 -1 -1 -2 -2 -2 -1 -1 -2 -2 -2 -1 -1 -2 -2 -2 -2 -2 -2 -2 -2 -2 -2 -2 -2 -2 -2 -2 -2 -2 -3 -1 -1 -1 -1 -1 -2 -2 -2 -2 -2 -2
-0 -1 -1 -0 -1 -2 -2 -2 -1 -2 -2 -2 -2 -2 -2 -2 -2 -2 -2 -1 -2 -2 -2 -2 -2 -2 -2 -2 -2 -2 -2 -2 -1 -1 -1 -1 -2 -2 -2 -2 -1 -2 -1
-1 -1 -1 -1 -1 -1 -1 -1 -1 -2 -2 -2 -2 -2 -2 -2 -2 -2 -3 -2 -2 -2 -2 -2 -2 -2 -2 -2 -2 -2 -2 -2 -1 -1 -1 -1 -2 -2 -2 -1 -1 -1 -1
-0 -0 -1 -1 -1 -1 -1 -0 -1 -1 -1 -2 -2 -1 -1 -2 -2 -2 -2 -2 -2 -2 -2 -2 -2 -1 -2 -2 -2 -2 -1 -1 -1 -1 -1 -1 -2 -2 -1 -1 -1 -1 -1
0 -0 -1 -1 -1 -1 -1 -0 0 -0 -1 -1 -1 -0 -0 -1 -1 -1 -1 -2 -2 -3 -2 -2 -1 -1 -1 -2 -1 -1 -1 -1 -1 -0 -0 -1 -1 -1 -1 -0 0 0 0
1 1 -0 -1 -1 -1 -1 -1 -1 -1 -1 -1 -1 -1 -1 -1 -1 -1 -0 -1 -2 -2 -2 -2 -2 -1 -1 -1 -1 -0 -1 -1 -0 -0 0 -1 -1 -0 -0 0 1 1 1
1 0 -0 -0 -1 -1 -1 -1 -1 -1 -1 -1 -1 -1 -1 -1 -1 -1 -1 -1 -2 -0 -1 -1 -1 -1 -1 -1 -1 -1 -1 -1 -0 -0 0 -1 -1 -0 0 0 1 1 1
1 1 -0 -0 -0 -1 -1 -1 -1 -1 -1 -1 -1 -1 -1 -1 -1 -1 -1 -1 -2 -1 -1 -1 -1 -1 -1 -1 -1 -1 -1 -1 -0 -0 -0 -0 -1 -0 -0 0 0 0 1
1 1 0 -0 -0 -1 -0 -1 -1 -1 -1 -1 -1 -1 -1 -1 -1 -1 -1 -1 -1 -1 -1 -1 -1 -1 -1 -1 -1 -1 -1 -1 -1 -1 -1 1 -1 -1 -1 -1 -1 -0 0
1 1 0 -0 -1 -0 -0 -0 -0 -1 -1 -1 -1 -1 -1 -1 -1 -1 -1 -1 -1 -1 -1 -0 -1 -1 -1 -1 -1 -1 -1 -1 -1 -1 -1 -1 -0 -1 -1 -1 -1 -1 -1
1 0 0 0 -0 0 -0 -0 -0 -1 -0 -1 -1 -1 -1 -1 -0 -0 -1 -1 -1 -1 -1 -1 -1 -1 -1 -1 -1 -1 -1 -1 -1 -1 -1 -1 -0 1 -1 -1 -1 -1 -1
1 1 0 0 -0 -0 -0 -0 -0 -1 -1 -1 -1 -1 -1 -1 -1 -0 0 0 -1 -1 -0 0 0 0 -0 0 0 0 0 0 -0 -0 -0 -0 -1 -0 0 -1 -2 -1 -1
1 1 1 0 0 0 -0 -0 -0 -1 -1 -1 -1 -0 -1 -0 -1 -0 -0 -0 0 1 1 1 1 1 2 2 2 2 1 2 2 2 1 1 1 0 -0 -0 0 -0 -2
1 0 0 0 0 1 -0 -0 -0 -0 -0 0 0 -0 -0 -0 -0 0 -0 -0 1 1 1 2 3 3 3 3 4 4 3 2 2 2 2 2 2 2 1 1 0 1 1
1 1 1 1 0 0 1 1 1 1 0 0 0 -1 -1 0 1 1 2 2 1 2 2 3 3 3 4 4 4 4 4 3 3 3 3 3 3 2 3 2 2 1 1
5 2 1 1 0 0 0 0 0 0 0 -0 -0 -0 -1 1 2 1 1 2 2 2 3 3 4 5 5 5 6 7 7 5 4 4 4 4 4 3 3 4 4 3 2
5 4 2 1 0 0 0 0 0 1 1 1 0 0 -0 -1 0 1 1 1 1 2 3 3 3 4 5 5 5 7 10 10 6 3 4 4 4 5 3 3 4 4 3
4 5 5 2 0 0 -0 1 1 2 2 1 1 0 -0 -0 -0 0 1 1 1 1 2 2 2 3 4 5 9 7 6 7 7 8 7 6 6 5 5 5 4 4 4
3 2 3 3 2 1 0 0 1 1 1 1 1 1 0 -0 -0 -0 -0 0 1 1 1 2 2 3 3 4 6 6 8 7 7 9 8 6 5 5 5 5 4 4 4
4 4 3 2 1 0 0 0 1 1 1 1 1 1 1 1 1 0 0 0 0 0 1 1 1 2 3 3 3 4 6 6 9 9 9 8 7 5 5 5 5 5 5